Location: Birkenwerder
(52.6919°N, 13.2774°E)
Time: 23:43:56
(UTC+00:00)

Cosmos 1570 Rocket - Pass Details

Date: 09 October 2020
Orbit: 763 x 788 km, 74.1° (Epoch: 24 October)

Event Time Altitude Azimuth Distance (km) Brightness Sun altitude
Exits shadow 01:07:26 29° 22° (NNE) 1,417 5.8 -36.3°
Drops below altitude 10° 01:10:00 10° 25° (NNE) 2,363 7.2 -36.0°
Sets 01:12:24 0° 26° (NNE) 3,295 8.2 -35.8°
